Skip Page Navigation
NASA JPL Caltech
NASA Logo - Jet Propulsion Laboratory + View the NASA Portal
+ Near-Earth Object (NEO) Program
Search JPL
JPL Home Earth Solar System Stars & Galaxies Technology
JPL Solar System Dynamics
BODIES ORBITS EPHEMERIDES TOOLS PHYSICAL DATA DISCOVERY FAQ SITE MAP
JPL Small-Body Database Browser
Search: [ help ]  
5074 Goetzoertel (1949 QQ1)
Classification: Main-belt Asteroid          SPK-ID: 2005074
Ephemeris | Orbit Diagram | Orbital Elements | Physical Parameters | Discovery Circumstances ]

[ hide orbit diagram ]
Orbit Diagram
Note: Make sure you have Java enabled on your browser to see the applet. This applet is provided as a 3D orbit visualization tool. The applet was implemented using 2-body methods, and hence should not be used for determining accurate long-term trajectories (over several years or decades) or planetary encounter circumstances. For accurate long-term ephemerides, please instead use our Horizons system.
Orbit Viewer

Additional Notes: the orbits shown in the applet are color coded. The planets are white lines, and the asteroid/comet is a blue line. The bright white line indicates the portion of the orbit that is above the ecliptic plane, and the darker portion is below the ecliptic plane. Likewise for the asteroid/comet orbit, the light blue indicates the portion above the ecliptic plane, and the dark blue the portion below the ecliptic plane.

Orbit Viewer applet originally written and kindly provided by Osamu Ajiki (AstroArts), and further modified by Ron Baalke (JPL).


Orbital Elements at Epoch 2456400.5 (2013-Apr-18.0) TDB
Reference: JPL 1 (heliocentric ecliptic J2000)
 Element Value Uncertainty (1-sigma)   Units 
e .1042584205385414 6.7355e-08  
a 2.994423141027373 2.9142e-08 AU
q 2.682229313919801 2.0391e-07 AU
i 8.559183257865909 8.427e-06 deg
node 309.6679759399221 5.0477e-05 deg
peri 88.55899487196869 6.9761e-05 deg
M 50.94135122272893 4.4715e-05 deg
tp 2456132.684232590523
(2012-Jul-24.18423259)
0.00023483 JED
period 1892.64073200308
5.18
2.7629e-05
7.564e-08
d
yr
n .1902104260532284 2.7767e-09 deg/d
Q 3.306616968134945 3.2181e-08 AU
  Orbit Determination Parameters
   # obs. used (total)      920  
   data-arc span      23233 days (63.61 yr)  
   first obs. used      1949-08-24  
   last obs. used      2013-04-03  
   planetary ephem.      DE405  
   SB-pert. ephem.      SB405-CPV-2  
   condition code      0  
   fit RMS      .56967  
   data source      ORB  
   producer      Otto Matic  
   solution date      2013-Apr-29 13:15:01  

Additional Information
 Earth MOID = 1.70627 AU 
 T_jup = 3.230 
[ show covariance matrix ]

Ephemeris | Orbit Diagram | Orbital Elements | Physical Parameters | Discovery Circumstances ]

Physical Parameter Table
Parameter Symbol Value Units Sigma Reference Notes
absolute magnitude H 11.7 mag n/a PDS3 (MPC 28112)  

5074 Goetzoertel           Discovered 1949 Aug. 24 at the Goethe Link Observatory, Indiana University.
Goetz V. Oertel (b. 1934), capping a distinguished career in science administration, served as president of the Association of Universities for Research in Astronomy from 1986 to 1999. Under his leadership, AURA became the managing organization for the Gemini Observatory, twin 8-meter telescopes in Hawaii and Chile.
NOTE: some special characters may not display properly (any characters within {} are an attempt to place the proper accent above a character)
Reference: 20031110/MPCPages.arcLast Updated: 2003-11-12

Alternate Designations
 1949 QQ1 = 1980 RE4 = 1983 EL1 
Ephemeris | Orbit Diagram | Orbital Elements | Physical Parameters | Discovery Circumstances ]
ABOUT SSD CREDITS/AWARDS PRIVACY/COPYRIGHT GLOSSARY LINKS
FirstGov 2013-May-24 00:20 UT
(server date/time)  
NASA Home Page
Site Manager:   Donald K. Yeomans
Webmaster  Alan B. Chamberlin